CW0333 Weather Reports


time (UTC)temp
C
wind
direction
speed
KPH
gust
KPH
rain 1hr
cm
rain 24hr
cm
rain mn
cm
humidity
%
barometer
mb
20260507224115 15 321 8.0 37.0 0.00 0.03 0.03 36 1006.5
20260507223612 15 317 6.4 33.8 0.00 0.03 0.03 35 1006.4
20260507223108 15 306 4.8 11.3 0.00 0.03 0.03 36 1006.4
20260507222606 15 315 11.3 19.3 0.00 0.03 0.03 35 1006.4
20260507222102 16 324 12.9 14.5 0.00 0.03 0.03 36 1006.1
20260507221558 15 296 6.4 25.7 0.00 0.03 0.03 35 1006.2
20260507221055 16 333 19.3 19.3 0.00 0.03 0.03 34 1006.1
20260507220552 16 322 14.5 14.5 0.00 0.03 0.03 35 1006.1
20260507220050 16 311 8.0 19.3 0.00 0.03 0.03 35 1006.2
20260507215546 16 326 3.2 20.9 0.00 0.03 0.03 34 1006.1
20260507215044 16 322 9.7 17.7 0.00 0.03 0.03 36 1005.9
20260507214541 16 324 0.0 19.3 0.00 0.03 0.03 34 1006.1
20260507214037 16 297 3.2 20.9 0.00 0.03 0.03 34 1006.0
20260507213533 16 266 8.0 27.4 0.00 0.03 0.03 34 1006.1
20260507213030 16 261 0.0 19.3 0.00 0.03 0.03 34 1005.9
20260507212526 16 212 3.2 20.9 0.00 0.03 0.03 35 1006.1
20260507212023 16 308 0.0 14.5 0.00 0.03 0.03 35 1006.1
20260507211520 17 330 9.7 25.7 0.00 0.03 0.03 33 1006.0
20260507211016 18 293 3.2 14.5 0.00 0.03 0.03 35 1006.2
20260507210513 17 294 4.8 17.7 0.00 0.03 0.03 35 1005.9
20260507210010 16 312 9.7 16.1 0.00 0.03 0.03 36 1006.1
20260507205507 18 207 6.4 9.7 0.00 0.03 0.03 36 1006.1
20260507205003 16 270 3.2 9.7 0.00 0.03 0.03 35 1006.0
20260507204459 16 320 3.2 14.5 0.00 0.03 0.03 36 1005.9
20260507203957 17 241 3.2 33.8 0.00 0.03 0.03 34 1006.1
20260507203455 18 270 6.4 14.5 0.00 0.03 0.03 33 1005.9
20260507202951 17 317 12.9 20.9 0.00 0.03 0.03 35 1005.8
20260507202447 18 315 9.7 16.1 0.00 0.03 0.03 33 1006.0
20260507201944 18 274 3.2 14.5 0.00 0.03 0.03 35 1005.9
20260507201438 17 56 3.2 9.7 0.00 0.03 0.03 36 1006.0
20260507200936 18 191 11.3 22.5 0.00 0.03 0.03 35 1006.0
20260507200431 18 331 3.2 11.3 0.00 0.03 0.03 34 1006.0
20260507195927 18 289 1.6 11.3 0.00 0.03 0.03 33 1006.1
20260507195425 18 323 12.9 19.3 0.00 0.03 0.03 34 1006.0
20260507194922 17 330 12.9 22.5 0.00 0.03 0.03 35 1006.1
20260507194418 16 325 9.7 24.1 0.00 0.03 0.03 35 1006.2
20260507193915 17 260 6.4 27.4 0.00 0.03 0.03 35 1005.9
20260507193412 18 321 6.4 8.0 0.00 0.03 0.03 36 1006.0
20260507192908 18 2 4.8 12.9 0.00 0.03 0.03 35 1006.1
20260507192404 17 250 6.4 32.2 0.00 0.03 0.03 35 1006.3
20260507191902 17 333 20.9 30.6 0.00 0.03 0.03 35 1006.2
20260507191358 17 244 4.8 29.0 0.00 0.03 0.03 34 1006.4
20260507190854 17 270 1.6 17.7 0.00 0.03 0.03 35 1006.3
20260507190352 18 314 9.7 16.1 0.00 0.03 0.03 35 1006.3
20260507185851 18 26 1.6 32.2 0.00 0.03 0.03 36 1006.3
20260507185348 18 318 16.1 16.1 0.00 0.03 0.03 37 1006.2
20260507184845 18 225 8.0 22.5 0.00 0.03 0.03 32 1006.2
20260507184343 18 303 6.4 11.3 0.00 0.03 0.03 35 1006.4
20260507183839 18 325 16.1 17.7 0.00 0.03 0.03 36 1006.4
20260507183336 17 270 4.8 25.7 0.00 0.03 0.03 37 1006.2
20260507182834 18 346 3.2 19.3 0.00 0.03 0.03 38 1006.4
20260507182329 18 209 0.0 14.5 0.00 0.03 0.03 38 1006.5
20260507181826 18 301 14.5 17.7 0.00 0.03 0.03 37 1006.4
20260507181322 18 309 8.0 25.7 0.00 0.03 0.03 40 1006.5
20260507180819 18 166 0.0 14.5 0.00 0.03 0.03 40 1006.6
20260507180316 17 297 1.6 20.9 0.00 0.03 0.03 40 1006.4
20260507175811 17 343 6.4 27.4 0.00 0.03 0.03 40 1006.4
20260507175309 17 257 4.8 29.0 0.00 0.03 0.03 42 1006.3
20260507174806 17 239 8.0 17.7 0.00 0.03 0.03 37 1006.2
20260507174304 17 328 16.1 17.7 0.00 0.03 0.03 40 1006.4
20260507173801 18 259 8.0 11.3 0.00 0.03 0.03 41 1006.4
20260507173258 17 313 8.0 14.5 0.00 0.03 0.03 42 1006.4
20260507172754 17 229 19.3 25.7 0.00 0.03 0.03 46 1006.5
20260507172251 17 337 12.9 22.5 0.00 0.03 0.03 50 1006.5
20260507171746 16 298 9.7 24.1 0.00 0.03 0.03 50 1006.5
20260507171244 16 304 11.3 17.7 0.00 0.03 0.03 50 1006.8
20260507170741 17 301 6.4 30.6 0.00 0.03 0.03 47 1006.4
20260507170237 17 261 0.0 17.7 0.00 0.03 0.03 48 1006.7
20260507165733 16 275 3.2 11.3 0.00 0.03 0.03 52 1006.9
20260507165229 17 327 9.7 19.3 0.00 0.03 0.03 53 1006.9
20260507164726 16 279 0.0 22.5 0.00 0.03 0.03 53 1007.1
20260507164223 16 319 14.5 16.1 0.00 0.03 0.03 52 1007.0
20260507163720 16 259 6.4 12.9 0.00 0.03 0.03 54 1007.2
20260507163218 16 315 16.1 16.1 0.00 0.03 0.03 54 1007.2
20260507162713 17 265 3.2 27.4 0.00 0.03 0.03 52 1007.0
20260507162210 17 257 3.2 14.5 0.00 0.03 0.03 50 1007.0
20260507161706 17 239 8.0 20.9 0.00 0.03 0.03 50 1006.9
20260507161203 16 297 4.8 16.1 0.00 0.03 0.03 50 1007.1
20260507160659 16 310 4.8 12.9 0.00 0.03 0.03 52 1007.2
20260507160156 16 312 8.0 16.1 0.00 0.03 0.03 53 1007.1
20260507155651 17 315 11.3 14.5 0.00 0.03 0.03 52 1007.4
20260507155142 16 205 4.8 24.1 0.00 0.03 0.03 53 1007.3
20260507154639 16 315 3.2 9.7 0.00 0.03 0.03 54 1007.4
20260507154137 15 201 8.0 12.9 0.00 0.03 0.03 55 1007.5
20260507153633 15 284 9.7 14.5 0.00 0.03 0.03 55 1007.5
20260507153129 16 315 4.8 14.5 0.00 0.03 0.03 54 1007.5
20260507152626 16 313 8.0 16.1 0.00 0.03 0.03 55 1007.5
20260507152122 17 316 17.7 20.9 0.00 0.03 0.03 50 1007.6
20260507151618 16 236 4.8 12.9 0.00 0.03 0.03 54 1007.7
20260507151115 16 258 9.7 17.7 0.00 0.03 0.03 53 1007.6
20260507150612 15 333 4.8 24.1 0.00 0.03 0.03 57 1007.5
20260507150108 16 244 8.0 27.4 0.00 0.03 0.03 55 1007.6
20260507145603 16 258 3.2 11.3 0.00 0.03 0.03 55 1007.9
20260507145101 16 292 4.8 12.9 0.00 0.03 0.03 54 1007.7
20260507144557 16 90 3.2 14.5 0.00 0.03 0.03 57 1007.6
20260507144056 16 354 4.8 12.9 0.00 0.03 0.03 57 1007.6
20260507143552 15 18 4.8 29.0 0.00 0.03 0.03 58 1007.5
20260507143050 15 324 8.0 16.1 0.00 0.03 0.03 58 1007.4
20260507142549 15 314 6.4 12.9 0.00 0.03 0.03 58 1007.6
20260507142047 15 319 3.2 14.5 0.00 0.03 0.03 56 1007.5
20260507141543 15 297 4.8 12.9 0.00 0.03 0.03 56 1007.4
20260507141040 15 238 4.8 14.5 0.00 0.03 0.03 58 1007.4
20260507140537 15 295 0.0 14.5 0.00 0.03 0.03 57 1007.3
20260507140034 14 322 6.4 20.9 0.00 0.03 0.03 58 1007.7
20260507135531 15 315 9.7 11.3 0.00 0.03 0.03 60 1007.5
20260507135028 15 266 4.8 9.7 0.00 0.03 0.03 64 1007.6
20260507134525 15 315 6.4 11.3 0.00 0.03 0.03 61 1007.6
20260507134020 14 323 6.4 8.0 0.00 0.03 0.03 66 1007.8
20260507133517 14 254 11.3 11.3 0.00 0.03 0.03 65 1007.8
20260507133015 14 298 8.0 8.0 0.00 0.03 0.03 65 1007.8
20260507132511 14 240 6.4 12.9 0.00 0.03 0.03 66 1007.8
20260507132007 13 312 0.0 8.0 0.00 0.03 0.03 68 1007.8
20260507131505 12 0 4.8 14.5 0.00 0.03 0.03 69 1008.0
20260507131001 13 246 3.2 8.0 0.00 0.03 0.03 70 1008.0
20260507130459 13 289 4.8 9.7 0.00 0.03 0.03 71 1008.0
20260507125957 12 251 4.8 9.7 0.00 0.03 0.03 73 1007.8
20260507125455 12 307 6.4 12.9 0.00 0.03 0.03 73 1008.0
20260507124952 12 303 3.2 11.3 0.00 0.03 0.03 74 1007.8
20260507124448 12 290 3.2 11.3 0.00 0.03 0.03 75 1008.1
20260507123946 12 319 9.7 16.1 0.00 0.03 0.03 76 1008.1
20260507123444 12 257 3.2 9.7 0.00 0.03 0.03 77 1008.0
20260507122940 12 245 6.4 6.4 0.00 0.03 0.03 78 1008.1
20260507122435 12 322 6.4 8.0 0.00 0.03 0.03 79 1008.0
20260507121932 12 299 3.2 6.4 0.00 0.03 0.03 81 1008.0
20260507121427 11 295 3.2 6.4 0.00 0.03 0.03 81 1008.0
20260507120924 11 340 0.0 6.4 0.00 0.03 0.03 84 1007.8
20260507120420 11 325 1.6 6.4 0.00 0.03 0.03 84 1008.1
20260507115917 11 337 1.6 8.0 0.00 0.03 0.03 85 1008.3
20260507115413 11 302 4.8 8.0 0.00 0.03 0.03 86 1008.1
20260507114909 10 270 0.0 6.4 0.00 0.03 0.03 89 1007.8
20260507114406 9 315 3.2 4.8 0.00 0.03 0.03 90 1007.6
20260507113903 9 306 1.6 3.2 0.00 0.03 0.03 90 1007.9
20260507113400 9 311 4.8 6.4 0.00 0.03 0.03 90 1007.7
20260507112857 9 309 3.2 4.8 0.00 0.03 0.03 91 1007.8
20260507112354 8 286 0.0 6.4 0.00 0.03 0.03 92 1008.1
20260507111852 8 270 3.2 4.8 0.00 0.03 0.03 93 1008.1
20260507111348 8 264 3.2 4.8 0.00 0.03 0.03 93 1008.1
20260507110845 8 283 1.6 4.8 0.00 0.03 0.03 92 1007.8
20260507110341 8 339 3.2 4.8 0.00 0.03 0.03 92 1007.6
20260507105838 8 0 4.8 8.0 0.00 0.03 0.03 92 1007.7
20260507105334 8 0 3.2 6.4 0.00 0.03 0.03 92 1007.6
20260507104831 8 3 3.2 9.7 0.00 0.03 0.03 92 1007.6
20260507104328 8 357 4.8 8.0 0.00 0.03 0.03 92 1007.5
20260507103824 8 301 4.8 8.0 0.00 0.03 0.03 92 1007.5
20260507103320 8 325 8.0 9.7 0.00 0.03 0.03 92 1007.6
20260507102817 8 307 3.2 8.0 0.00 0.03 0.03 92 1007.3
20260507102314 8 295 3.2 11.3 0.00 0.03 0.03 92 1007.6
20260507101810 8 275 3.2 12.9 0.00 0.03 0.03 91 1007.6
20260507101310 8 314 8.0 9.7 0.00 0.03 0.03 92 1007.4
20260507100808 8 270 0.0 8.0 0.00 0.03 0.03 92 1007.7
20260507100306 8 297 1.6 17.7 0.00 0.03 0.03 92 1007.4
20260507095804 8 346 1.6 12.9 0.00 0.03 0.03 92 1007.4
20260507095300 8 324 4.8 8.0 0.00 0.03 0.03 92 1007.6
20260507094757 8 305 6.4 11.3 0.00 0.03 0.03 92 1007.8
20260507094254 8 329 6.4 8.0 0.00 0.03 0.03 93 1007.5
20260507093750 8 289 1.6 9.7 0.00 0.03 0.03 93 1007.4
20260507093249 8 326 0.0 19.3 0.00 0.03 0.03 93 1007.4
20260507092746 8 218 3.2 11.3 0.00 0.03 0.03 93 1007.3
20260507092242 8 320 6.4 12.9 0.00 0.03 0.03 94 1007.5
20260507091739 8 306 4.8 9.7 0.00 0.03 0.03 93 1007.1
20260507091235 8 320 8.0 14.5 0.00 0.03 0.03 94 1007.4
20260507090731 8 307 4.8 14.5 0.00 0.03 0.03 95 1007.2
20260507090228 8 332 6.4 11.3 0.00 0.03 0.03 95 1007.1
20260507085725 8 312 6.4 8.0 0.00 0.03 0.03 95 1007.5
20260507085217 8 263 1.6 9.7 0.00 0.03 0.03 95 1007.1
20260507084714 8 326 6.4 9.7 0.00 0.03 0.03 95 1007.0
20260507084210 8 300 4.8 16.1 0.05 0.03 0.03 95 1007.0
20260507083708 8 315 6.4 8.0 0.05 0.03 0.03 94 1007.1
20260507083204 8 311 4.8 8.0 0.00 0.00 0.00 94 1007.2
20260507082659 9 309 3.2 9.7 0.05 0.00 0.00 93 1006.9
20260507082155 9 310 3.2 11.3 0.05 0.00 0.00 93 1006.8
20260507081652 10 339 11.3 29.0 0.00 0.00 0.00 91 1006.8
20260507081143 10 290 4.8 12.9 0.00 0.00 0.00 90 1007.0
20260507080640 10 307 6.4 16.1 0.00 0.00 0.00 90 1007.2
20260507080136 10 317 8.0 11.3 0.00 0.00 0.00 91 1007.1
20260507075631 10 281 6.4 11.3 0.00 0.00 0.00 91 1007.1
20260507075128 10 315 14.5 20.9 0.00 0.00 0.00 91 1006.9
20260507074625 10 321 9.7 14.5 0.00 0.00 0.00 91 1006.7
20260507074123 10 325 11.3 12.9 0.00 0.00 0.00 91 1006.8
20260507073619 10 317 4.8 11.3 0.00 0.00 0.00 91 1006.7
20260507073115 10 310 6.4 12.9 0.00 0.00 0.00 91 1006.6
20260507072613 10 323 9.7 11.3 0.00 0.00 0.00 91 1006.6
20260507072110 10 304 8.0 14.5 0.00 0.00 0.00 91 1006.7
20260507071607 10 335 4.8 12.9 0.00 0.00 0.00 91 1007.1
20260507071103 10 330 9.7 9.7 0.00 0.00 0.00 91 1006.6
20260507070601 10 329 8.0 16.1 0.00 0.00 0.00 91 1006.6
20260507070057 10 307 4.8 14.5 0.00 0.00 0.00 90 1006.7
20260507065554 10 315 11.3 12.9 0.00 0.00 0.00 90 1006.5
20260507065051 10 243 0.0 17.7 0.00 0.00 0.00 91 1006.8
20260507064549 10 229 3.2 6.4 0.00 0.00 0.00 91 1006.4
20260507064047 10 12 1.6 17.7 0.00 0.00 0.00 91 1006.5
20260507063544 10 315 3.2 11.3 0.00 0.00 0.00 91 1006.3
20260507063041 10 274 0.0 12.9 0.00 0.00 0.00 91 1006.2
20260507062538 10 259 4.8 11.3 0.00 0.00 0.00 91 1006.0
20260507062035 10 339 6.4 17.7 0.00 0.00 0.00 91 1006.3
20260507061533 10 315 16.1 16.1 0.00 0.00 0.00 91 1006.2
20260507061031 10 331 4.8 11.3 0.00 0.00 0.00 91 1006.3
20260507060528 10 296 4.8 9.7 0.00 0.00 0.00 91 1006.5
20260507060025 10 319 9.7 12.9 0.00 0.00 0.00 91 1006.7
20260507055520 10 289 6.4 16.1 0.00 0.00 0.00 92 1006.6
20260507055016 10 357 11.3 19.3 0.00 0.00 0.00 92 1006.6
20260507054513 11 262 4.8 17.7 0.00 0.00 0.00 93 1006.6
20260507054010 11 297 8.0 12.9 0.00 0.00 0.00 92 1006.7
20260507053508 11 350 4.8 12.9 0.00 0.00 0.00 93 1006.7
20260507053006 11 306 8.0 12.9 0.00 0.00 0.00 93 1006.7
20260507052503 11 347 4.8 9.7 0.00 0.00 0.00 94 1006.6
20260507052000 11 257 4.8 11.3 0.00 0.00 0.00 93 1006.3
20260507051458 11 351 4.8 12.9 0.00 0.00 0.00 93 1006.1
20260507050954 11 323 11.3 14.5 0.00 0.00 0.00 93 1006.3
20260507050450 11 315 4.8 16.1 0.00 0.00 0.00 94 1006.3
20260507045948 11 315 11.3 14.5 0.00 0.00 0.00 93 1006.4
20260507045444 11 326 0.0 12.9 0.00 0.00 0.00 94 1006.3
20260507044942 11 266 8.0 11.3 0.00 0.00 0.00 95 1006.4
20260507044438 11 328 9.7 11.3 0.00 0.00 0.00 95 1006.6
20260507043934 12 286 3.2 6.4 0.00 0.00 0.00 95 1006.7
20260507043431 12 320 6.4 14.5 0.00 0.00 0.00 95 1006.6
20260507042927 12 310 8.0 16.1 0.00 0.00 0.00 95 1006.5
20260507042424 11 321 12.9 17.7 0.00 0.00 0.00 98 1006.4
20260507041919 11 293 3.2 8.0 0.00 0.00 0.00 99 1006.3
20260507041416 11 304 6.4 17.7 0.00 0.00 0.00 99 1006.4
20260507040914 11 259 6.4 9.7 0.00 0.00 0.00 99 1006.3
20260507040409 11 290 4.8 9.7 0.00 0.00 0.00 99 1006.2
20260507035905 12 242 4.8 14.5 0.00 0.79 0.79 99 1006.3
20260507035402 12 314 8.0 17.7 0.00 0.79 0.79 99 1006.2
20260507034859 13 270 6.4 12.9 0.00 0.79 0.79 99 1005.9
20260507034356 13 0 4.8 14.5 0.00 0.79 0.79 99 1005.9
20260507033854 13 99 0.0 27.4 0.00 0.79 0.79 99 1005.9
20260507033352 13 314 11.3 12.9 0.00 0.79 0.79 99 1005.9
20260507032848 13 320 4.8 19.3 0.00 0.79 0.79 99 1005.9
20260507032345 13 319 9.7 11.3 0.00 0.79 0.79 99 1005.9
20260507031841 12 344 4.8 12.9 0.00 0.79 0.79 99 1006.0
20260507031338 11 0 1.6 4.8 0.00 0.79 0.79 99 1005.6
20260507030834 10 314 8.0 8.0 0.00 0.79 0.79 99 1005.6
20260507030332 11 172 0.0 4.8 0.00 0.79 0.79 99 1005.7
20260507025829 11 168 1.6 6.4 0.00 0.79 0.79 99 1005.5
20260507025326 11 145 4.8 6.4 0.00 0.79 0.79 99 1005.6
20260507024824 11 158 4.8 6.4 0.00 0.79 0.79 99 1005.6
20260507024321 11 170 3.2 8.0 0.00 0.79 0.79 99 1005.6
20260507023817 10 128 3.2 4.8 0.00 0.79 0.79 99 1005.5
20260507023313 10 194 0.0 4.8 0.00 0.79 0.79 99 1005.7
20260507022811 10 210 3.2 4.8 0.00 0.79 0.79 99 1005.7
20260507022307 11 68 0.0 9.7 0.00 0.79 0.79 99 1005.9
20260507021803 10 73 3.2 3.2 0.00 0.79 0.79 99 1005.8
20260507021259 10 35 1.6 4.8 0.00 0.79 0.79 99 1005.7
20260507020757 11 0 0.0 4.8 0.00 0.79 0.79 99 1005.9
20260507020253 11 75 1.6 3.2 0.00 0.79 0.79 99 1006.0
20260507015751 11 90 0.0 3.2 0.00 0.79 0.79 99 1006.1
20260507015248 11 35 0.0 4.8 0.00 0.79 0.79 99 1006.0
20260507014745 11 157 0.0 4.8 0.00 0.79 0.79 99 1006.2
20260507014241 11 182 4.8 8.0 0.00 0.79 0.79 99 1006.1
20260507013738 12 203 4.8 8.0 0.00 0.79 0.79 99 1006.1
20260507013236 12 195 3.2 4.8 0.00 0.79 0.79 99 1006.3
20260507012733 12 182 4.8 8.0 0.00 0.79 0.79 99 1006.0
20260507012228 12 217 6.4 9.7 0.00 0.79 0.79 99 1006.3
20260507011726 12 221 8.0 11.3 0.05 0.79 0.79 99 1006.3
20260507011222 12 224 12.9 12.9 0.05 0.79 0.79 99 1006.3
20260507010722 12 152 3.2 12.9 0.00 0.79 0.79 99 1006.1
20260507010218 12 194 9.7 12.9 0.00 0.79 0.79 99 1006.2
20260507005716 12 225 9.7 19.3 0.00 0.79 0.79 99 1006.3
20260507005212 12 230 11.3 19.3 0.00 0.79 0.79 99 1006.3
20260507004708 12 222 8.0 17.7 0.00 0.79 0.79 99 1006.4
20260507004206 12 229 14.5 29.0 0.00 0.79 0.79 99 1006.3
20260507003702 12 203 22.5 24.1 0.00 0.79 0.79 99 1006.1
20260507003158 12 266 8.0 14.5 0.00 0.79 0.79 99 1006.2
20260507002654 12 160 24.1 27.4 0.00 0.79 0.79 99 1006.4
20260507002150 12 220 16.1 20.9 0.00 0.79 0.79 99 1006.3
20260507001647 12 225 11.3 20.9 0.05 0.79 0.79 99 1006.2
20260507001144 12 201 6.4 14.5 0.05 0.79 0.79 99 1006.2
20260507000641 12 220 8.0 19.3 0.00 0.76 0.76 99 1006.2
20260507000136 12 190 8.0 19.3 0.05 0.76 0.76 99 1006.1
20260506235634 12 243 4.8 24.1 0.30 0.76 0.76 99 1006.1
20260506235133 12 195 11.3 16.1 0.36 0.76 0.76 99 1005.9
20260506234631 12 203 11.3 19.3 0.18 0.71 0.71 99 1006.2
20260506234128 12 220 11.3 20.9 0.05 0.71 0.71 99 1006.0
20260506233625 12 235 9.7 22.5 0.13 0.69 0.69 99 1006.2
20260506233122 12 213 11.3 19.3 0.13 0.69 0.69 99 1006.2
20260506232618 12 190 9.7 20.9 0.13 0.66 0.66 99 1006.2
20260506232114 12 216 9.7 17.7 0.13 0.66 0.66 99 1006.3
20260506231611 12 209 16.1 27.4 0.05 0.66 0.66 99 1006.2
20260506231109 12 212 17.7 22.5 0.05 0.64 0.64 99 1006.1
20260506230606 12 225 12.9 27.4 0.05 0.64 0.64 99 1006.2
20260506230103 12 173 14.5 32.2 0.05 0.64 0.64 99 1006.3
20260506225559 12 196 6.4 27.4 0.05 0.64 0.64 99 1006.4
20260506225055 12 193 11.3 19.3 0.00 0.61 0.61 99 1006.3
20260506224553 12 203 16.1 24.1 0.05 0.61 0.61 99 1006.3